�N����,����,�~����,�C��,���x,�C��,����,���ϕ���,�ő�u�ԕ���,�ő厞����,���˗�,�I�_���x,�n�����x,�ő啗���N��,DTYPE
"18/05/31","00:10",0.0,15.1,97.5,1005.2,299.6,0.8,1.2,318.6,0.00,14.7,18.6,"00:02:08",1
"18/05/31","00:20",0.0,15.0,97.3,1005.5,296.8,0.7,1.0,319.2,0.00,14.6,18.8,"00:10:32",1
"18/05/31","00:30",0.0,14.9,97.4,1005.2,306.1,0.8,1.3,334.9,0.00,14.5,18.7,"00:26:48",1
"18/05/31","00:40",0.0,15.0,97.7,1005.2,325.7,1.0,1.4,338.2,0.00,14.7,18.6,"00:30:40",1
"18/05/31","00:50",0.0,14.9,97.4,1005.2,287.3,0.8,1.1,302.5,0.00,14.5,18.7,"00:46:56",1
"18/05/31","01:00",0.0,14.9,97.8,1005.2,271.2,0.8,1.4,271.2,0.00,14.6,18.6,"00:58:56",1
"18/05/31","01:10",0.0,14.9,97.7,1005.5,304.7,1.0,1.7,322.7,0.00,14.6,18.5,"01:06:40",1
"18/05/31","01:20",0.0,15.0,97.8,1004.8,309.8,1.1,1.6,317.9,0.00,14.7,18.4,"01:15:28",1
"18/05/31","01:30",0.0,15.0,97.6,1005.0,333.6,1.1,1.7,335.6,0.00,14.7,18.5,"01:27:20",1
"18/05/31","01:40",0.0,15.0,97.9,1004.8,280.7,0.8,1.7,335.3,0.00,14.7,18.4,"01:30:08",1
"18/05/31","01:50",0.0,14.9,97.9,1004.8,274.9,0.2,0.6,246.0,0.00,14.6,18.3,"01:40:08",1
"18/05/31","02:00",0.0,14.9,98.1,1004.8,308.8,0.8,1.4,324.1,0.00,14.6,18.4,"01:58:16",1
"18/05/31","02:10",0.0,15.0,97.3,1005.0,307.4,1.3,1.8,314.8,0.00,14.6,18.4,"02:04:24",1
"18/05/31","02:20",0.0,14.9,98.1,1004.8,322.4,1.1,1.6,323.5,0.00,14.6,18.3,"02:13:36",1
"18/05/31","02:30",0.0,14.9,97.1,1005.2,291.3,0.6,1.1,275.0,0.00,14.5,18.2,"02:28:40",1
"18/05/31","02:40",0.0,14.6,98.0,1005.2,293.4,0.8,1.4,313.2,0.00,14.3,18.4,"02:39:20",1
"18/05/31","02:50",0.0,14.8,97.6,1005.2,313.9,1.2,1.8,326.0,0.00,14.5,18.2,"02:47:44",1
"18/05/31","03:00",0.0,14.7,97.9,1005.2,330.2,1.3,2.4,334.1,0.00,14.4,18.2,"02:50:08",1
"18/05/31","03:10",0.0,14.7,98.1,1005.2,293.2,1.2,2.2,323.2,0.00,14.4,18.2,"03:00:40",1
"18/05/31","03:20",0.2,14.7,97.5,1005.0,277.3,0.7,1.1,278.8,0.00,14.3,18.1,"03:12:32",1
"18/05/31","03:30",0.0,14.5,98.2,1005.5,303.1,1.2,1.4,310.1,0.00,14.3,18.2,"03:23:04",1
"18/05/31","03:40",0.0,14.7,97.5,1005.2,289.6,1.1,1.9,311.4,0.00,14.3,18.1,"03:32:48",1
"18/05/31","03:50",0.0,14.6,98.0,1005.2,317.7,1.2,1.7,324.5,0.00,14.3,18.2,"03:43:20",1
"18/05/31","04:00",0.0,14.7,97.7,1005.7,302.4,1.5,2.6,320.5,0.00,14.4,18.2,"03:57:52",1
"18/05/31","04:10",0.0,14.6,98.1,1005.0,294.0,0.8,1.9,334.7,0.00,14.3,18.0,"04:00:08",1
"18/05/31","04:20",0.0,14.9,97.8,1004.8,279.6,1.0,2.1,317.1,0.00,14.6,18.2,"04:10:02",1
"18/05/31","04:30",0.0,14.9,98.3,1004.8,286.2,0.8,1.9,326.3,0.00,14.7,17.9,"04:20:08",1
"18/05/31","04:40",0.0,15.2,97.6,1005.0,288.6,1.1,1.7,317.3,0.00,14.9,17.9,"04:34:16",1
"18/05/31","04:50",0.0,15.1,98.1,1005.0,299.4,1.0,1.4,281.7,0.00,14.8,18.1,"04:42:00",1
"18/05/31","05:00",0.0,15.3,97.5,1004.8,311.5,0.7,1.1,315.3,0.00,14.9,18.1,"04:54:24",1
"18/05/31","05:10",0.0,15.2,98.0,1005.0,306.1,1.2,1.9,322.5,0.00,14.9,18.1,"05:02:56",1
"18/05/31","05:20",0.0,15.4,97.4,1005.0,293.9,1.0,1.3,299.7,0.00,15.0,18.1,"05:15:04",1
"18/05/31","05:30",0.0,15.3,98.2,1004.8,318.5,1.2,1.7,326.4,0.00,15.1,18.0,"05:25:20",1
"18/05/31","05:40",0.0,15.6,97.4,1005.0,273.3,0.7,1.1,278.8,0.00,15.2,17.8,"05:39:52",1
"18/05/31","05:50",0.0,15.6,98.1,1004.8,267.6,0.8,1.2,286.4,0.00,15.3,17.9,"05:42:08",1
"18/05/31","06:00",0.0,15.9,97.2,1004.3,300.5,0.6,1.0,256.8,0.00,15.5,18.1,"05:50:48",1
"18/05/31","06:10",0.0,15.8,97.9,1004.5,307.4,1.1,2.0,311.7,0.00,15.5,18.2,"06:08:32",1
"18/05/31","06:20",0.0,15.7,97.8,1004.8,303.3,1.1,1.6,315.2,0.00,15.4,18.0,"06:12:24",1
"18/05/31","06:30",0.0,15.9,97.9,1004.8,317.5,1.3,2.1,324.4,0.00,15.6,18.1,"06:21:36",1
"18/05/31","06:40",0.0,16.1,98.0,1004.8,331.1,1.3,2.4,326.3,0.01,15.8,18.2,"06:37:28",1
"18/05/31","06:50",0.0,16.4,97.4,1004.3,287.9,0.8,1.8,326.0,0.01,16.0,18.2,"06:41:44",1
"18/05/31","07:00",0.0,16.4,97.9,1004.5,284.6,1.1,1.3,271.4,0.01,16.1,18.2,"06:54:56",1
"18/05/31","07:10",0.0,16.4,97.8,1004.5,316.7,1.8,2.7,323.7,0.01,16.1,18.2,"07:09:28",1
"18/05/31","07:20",0.0,16.4,97.5,1004.8,285.2,1.2,2.4,320.7,0.00,16.0,18.3,"07:10:08",1
"18/05/31","07:30",0.0,16.4,97.4,1004.5,305.2,1.3,2.0,312.8,0.00,16.0,18.2,"07:26:48",1
"18/05/31","07:40",0.0,16.6,97.9,1004.8,293.5,1.2,1.7,305.7,0.00,16.3,18.3,"07:30:16",1
"18/05/31","07:50",0.0,16.7,97.5,1004.5,288.8,1.2,1.7,313.8,0.01,16.3,18.3,"07:46:00",1
"18/05/31","08:00",0.0,16.8,97.6,1004.3,276.6,0.7,1.3,264.6,0.01,16.5,18.2,"07:52:08",1
"18/05/31","08:10",0.0,16.8,97.1,1004.5,304.5,1.5,2.6,325.3,0.01,16.4,18.3,"08:09:36",1
"18/05/31","08:20",0.0,17.0,97.4,1004.1,323.7,1.6,2.4,318.5,0.01,16.6,18.3,"08:10:56",1
"18/05/31","08:30",0.0,17.0,97.2,1004.1,318.4,1.5,2.6,326.7,0.01,16.6,18.2,"08:20:24",1
"18/05/31","08:40",0.0,17.3,97.2,1003.8,273.3,0.7,1.7,322.1,0.01,16.9,18.4,"08:30:08",1
"18/05/31","08:50",0.0,17.2,96.9,1004.3,272.7,0.6,1.1,285.2,0.01,16.7,18.3,"08:49:04",1
"18/05/31","09:00",0.0,17.2,96.5,1004.1,294.4,1.2,1.8,311.9,0.01,16.7,18.4,"08:54:24",1
"18/05/31","09:10",0.0,17.4,97.0,1004.1,303.5,1.2,1.9,316.8,0.00,17.0,18.4,"09:08:16",1
"18/05/31","09:20",0.0,17.4,96.6,1003.8,312.9,1.3,2.5,322.2,0.01,16.9,18.6,"09:15:28",1
"18/05/31","09:30",0.0,17.5,96.5,1003.8,280.8,1.0,1.3,298.6,0.00,17.0,18.5,"09:20:16",1
"18/05/31","09:40",0.0,17.4,96.4,1003.8,282.4,1.0,1.3,320.4,0.00,16.9,18.4,"09:39:28",1
"18/05/31","09:50",0.0,17.6,96.7,1003.6,281.0,0.8,1.4,254.4,0.01,17.1,18.6,"09:44:08",1
"18/05/31","10:00",0.0,17.7,96.2,1003.6,277.0,0.7,1.0,256.4,0.02,17.1,18.7,"09:52:32",1
"18/05/31","10:10",0.0,17.6,95.9,1003.6,310.1,1.2,2.1,334.8,0.01,17.0,18.5,"10:09:12",1
"18/05/31","10:20",0.0,17.7,95.7,1003.6,320.5,1.0,2.0,329.2,0.01,17.0,18.4,"10:11:52",1
"18/05/31","10:30",0.0,17.7,95.5,1003.4,293.9,0.7,1.1,313.0,0.01,17.0,18.7,"10:22:24",1
"18/05/31","10:40",0.0,17.9,95.5,1003.1,303.3,1.0,1.2,320.4,0.00,17.2,18.6,"10:31:12",1
"18/05/31","10:50",0.0,18.0,95.4,1003.4,282.8,0.8,1.1,296.3,0.01,17.3,18.6,"10:44:08",1
"18/05/31","11:00",0.0,18.1,95.4,1002.6,320.9,1.2,1.9,328.7,0.01,17.4,18.4,"10:58:32",1
"18/05/31","11:10",0.2,18.3,95.3,1003.4,319.8,0.8,1.9,337.0,0.03,17.6,18.5,"11:02:32",1
"18/05/31","11:20",0.0,18.2,94.6,1003.1,290.7,1.0,1.7,323.7,0.06,17.4,18.4,"11:11:36",1
"18/05/31","11:30",0.0,18.6,93.9,1002.9,308.6,1.1,2.4,339.6,0.08,17.6,18.8,"11:29:12",1
"18/05/31","11:40",0.0,18.9,94.4,1002.6,313.5,1.1,2.4,343.1,0.11,18.0,18.7,"11:32:00",1
"18/05/31","11:50",0.0,19.0,93.4,1002.4,300.0,1.1,2.0,314.1,0.08,18.0,18.7,"11:47:28",1
"18/05/31","12:00",0.2,19.0,93.0,1002.6,281.0,0.8,1.4,244.9,0.04,17.9,18.9,"11:51:36",1
"18/05/31","12:10",0.6,19.0,93.5,1002.9,308.1,0.8,1.3,331.2,0.03,18.0,18.8,"12:01:12",1
"18/05/31","12:20",6.0,18.8,93.5,1002.9,263.3,0.6,1.7,300.8,0.01,17.8,18.9,"12:14:48",1
"18/05/31","12:30",5.2,18.5,94.2,1002.6,292.2,0.8,2.5,341.2,0.02,17.6,18.7,"12:29:28",1
"18/05/31","12:40",4.2,18.5,94.5,1002.6,245.4,0.8,1.8,304.2,0.02,17.6,18.9,"12:31:20",1
"18/05/31","12:50",1.0,18.5,94.9,1002.6,325.9,0.8,1.9,326.6,0.03,17.7,18.8,"12:48:32",1
"18/05/31","13:00",0.2,18.7,95.2,1002.6,281.6,0.6,1.7,334.5,0.03,18.0,18.7,"12:50:16",1
"18/05/31","13:10",0.0,18.6,95.2,1002.9,275.5,0.3,1.1,281.9,0.01,17.9,18.9,"13:00:08",1
"18/05/31","13:20",0.6,18.8,95.4,1002.9,206.5,0.6,1.6,230.3,0.01,18.1,18.7,"13:17:44",1
"18/05/31","13:30",3.6,18.7,95.6,1002.4,278.2,0.7,1.8,201.6,0.01,18.0,18.8,"13:20:48",1
"18/05/31","13:40",0.6,18.8,95.8,1002.2,355.7,0.7,1.8,352.4,0.02,18.2,19.0,"13:35:36",1
"18/05/31","13:50",0.0,19.2,96.5,1001.9,227.8,0.7,1.4,207.0,0.07,18.7,19.0,"13:45:04",1
"18/05/31","14:00",0.0,19.3,96.2,1001.9,214.8,0.7,1.7,235.4,0.16,18.7,18.8,"13:57:52",1
"18/05/31","14:10",0.0,19.4,96.0,1001.9,257.7,0.8,1.7,257.6,0.09,18.8,18.8,"14:01:52",1
"18/05/31","14:20",0.0,19.3,95.7,1001.9,268.4,0.6,1.1,323.7,0.05,18.6,19.0,"14:19:36",1
"18/05/31","14:30",0.0,19.5,95.9,1001.7,301.9,0.7,1.3,315.9,0.06,18.9,19.0,"14:27:20",1
"18/05/31","14:40",0.0,19.6,96.0,1001.7,309.6,0.8,1.7,333.3,0.10,19.0,19.0,"14:30:02",1
"18/05/31","14:50",0.0,19.6,96.0,1001.5,334.0,0.8,1.8,321.1,0.10,19.0,19.0,"14:40:02",1
"18/05/31","15:00",0.0,19.7,95.5,1001.5,310.2,0.6,1.6,320.0,0.03,19.0,19.2,"14:50:16",1
"18/05/31","15:10",0.0,19.7,95.6,1001.7,268.7,0.2,1.0,286.9,0.03,19.0,19.2,"15:09:28",1
"18/05/31","15:20",0.0,19.8,95.6,1001.5,298.3,0.7,1.2,322.4,0.02,19.1,19.2,"15:14:32",1
"18/05/31","15:30",0.0,19.9,95.6,1001.2,294.6,0.7,1.4,320.1,0.01,19.2,19.3,"15:23:28",1
"18/05/31","15:40",0.0,19.9,95.1,1001.9,278.7,0.2,0.8,292.7,0.05,19.1,19.2,"15:38:00",1
"18/05/31","15:50",0.0,19.9,94.9,1001.5,297.1,0.7,1.1,309.9,0.04,19.1,19.1,"15:47:12",1
"18/05/31","16:00",0.0,20.0,95.2,1001.5,306.4,1.1,1.6,316.7,0.03,19.2,19.2,"15:55:20",1
"18/05/31","16:10",0.0,20.0,94.9,1001.2,283.0,0.7,1.3,334.0,0.02,19.2,19.2,"16:01:52",1
"18/05/31","16:20",0.0,20.0,95.0,1001.2,276.1,0.8,1.2,303.3,0.01,19.2,19.3,"16:14:24",1
"18/05/31","16:30",0.0,20.4,94.7,1001.0,291.0,1.0,1.9,292.8,0.08,19.6,19.5,"16:28:08",1
"18/05/31","16:40",0.0,20.4,94.3,1001.5,305.6,0.8,1.4,329.6,0.07,19.5,19.3,"16:32:00",1
"18/05/31","16:50",0.0,20.5,94.4,1001.0,261.0,0.5,1.0,273.3,0.06,19.6,19.2,"16:40:16",1
"18/05/31","17:00",0.0,20.6,94.3,1001.0,255.3,0.7,1.3,234.5,0.06,19.7,19.4,"16:51:36",1
"18/05/31","17:10",0.0,20.6,94.2,1001.2,274.6,0.6,0.9,273.5,0.03,19.7,19.4,"17:00:08",1
"18/05/31","17:20",0.0,20.7,93.8,1001.5,298.6,0.6,1.1,330.3,0.04,19.7,19.3,"17:19:36",1
"18/05/31","17:30",0.0,20.6,93.8,1001.0,305.7,0.7,1.4,336.8,0.04,19.6,19.6,"17:22:16",1
"18/05/31","17:40",0.0,20.5,93.3,1000.8,313.3,0.7,1.4,334.3,0.03,19.4,19.4,"17:31:36",1
"18/05/31","17:50",0.0,20.7,94.0,1001.2,311.1,0.6,1.2,347.9,0.03,19.7,19.5,"17:42:16",1
"18/05/31","18:00",0.0,20.7,93.5,1001.2,283.3,0.5,0.8,281.2,0.02,19.7,19.6,"17:54:56",1
"18/05/31","18:10",0.0,20.6,93.7,1001.2,309.5,0.7,1.1,319.9,0.01,19.6,19.6,"18:00:56",1
"18/05/31","18:20",0.0,20.4,93.6,1001.2,261.9,0.7,1.2,236.8,0.00,19.4,19.5,"18:17:04",1
"18/05/31","18:30",0.0,20.5,94.2,1000.8,333.7,0.8,1.4,357.7,0.00,19.6,19.5,"18:26:00",1
"18/05/31","18:40",0.0,20.4,94.2,1000.5,278.3,0.5,1.2,314.0,0.00,19.5,19.7,"18:35:36",1
"18/05/31","18:50",0.0,20.3,94.5,1001.0,344.9,0.7,1.6,317.2,0.00,19.4,19.5,"18:47:12",1
"18/05/31","19:00",0.0,20.2,94.6,1001.0,321.2,1.3,2.4,335.9,0.00,19.3,19.4,"18:55:12",1
"18/05/31","19:10",0.0,20.0,94.8,1001.2,279.2,0.6,1.6,237.9,0.00,19.2,19.7,"19:03:04",1
"18/05/31","19:20",0.0,19.1,94.5,1001.2,343.0,2.0,4.3,349.3,0.00,18.2,19.5,"19:18:40",1
"18/05/31","19:30",3.8,18.4,93.8,1002.4,295.9,1.7,4.3,349.0,0.00,17.4,19.5,"19:23:12",1
"18/05/31","19:40",1.2,18.2,94.1,1002.4,266.8,1.1,2.4,240.5,0.00,17.3,19.4,"19:33:20",1
"18/05/31","19:50",0.6,18.1,94.5,1001.9,314.5,1.2,2.1,325.9,0.00,17.2,19.4,"19:45:12",1
"18/05/31","20:00",0.2,18.0,94.7,1001.9,275.3,1.0,1.8,257.2,0.00,17.2,19.2,"19:50:02",1
"18/05/31","20:10",0.0,17.7,94.6,1002.4,281.6,1.0,1.7,304.9,0.00,16.9,19.2,"20:06:48",1
"18/05/31","20:20",0.0,17.5,94.7,1002.2,277.1,0.7,1.3,307.7,0.00,16.7,19.3,"20:15:04",1
"18/05/31","20:30",0.0,17.4,95.1,1002.2,300.7,1.2,1.7,308.5,0.00,16.6,19.2,"20:25:28",1
"18/05/31","20:40",0.0,17.3,95.2,1002.6,316.3,1.2,1.9,328.8,0.00,16.6,19.0,"20:31:12",1
"18/05/31","20:50",0.0,17.1,95.2,1002.4,313.9,0.6,1.4,332.3,0.00,16.4,19.2,"20:40:08",1
"18/05/31","21:00",0.0,17.1,95.8,1002.6,307.6,0.7,1.3,304.5,0.00,16.5,19.2,"20:54:56",1
"18/05/31","21:10",0.0,16.9,96.0,1002.9,288.5,0.3,1.0,337.8,0.00,16.3,18.8,"21:09:12",1
"18/05/31","21:20",0.0,16.7,96.0,1003.4,291.5,0.7,1.7,342.0,0.00,16.1,19.1,"21:18:40",1
"18/05/31","21:30",0.0,16.9,96.2,1003.4,331.5,1.1,1.9,342.3,0.00,16.3,19.0,"21:21:12",1
"18/05/31","21:40",0.0,16.7,96.1,1003.6,286.9,0.7,1.7,327.9,0.00,16.1,18.7,"21:30:02",1
"18/05/31","21:50",0.0,16.6,96.3,1003.8,326.2,1.0,2.2,337.7,0.00,16.0,18.7,"21:40:16",1
"18/05/31","22:00",0.2,16.6,96.7,1003.6,318.2,0.8,1.6,326.3,0.00,16.1,18.7,"21:55:04",1
"18/05/31","22:10",0.0,16.7,96.8,1003.8,314.4,0.8,1.8,333.4,0.00,16.2,18.7,"22:02:48",1
"18/05/31","22:20",0.0,16.6,96.7,1003.8,315.3,1.0,1.4,330.5,0.00,16.1,18.8,"22:17:20",1
"18/05/31","22:30",0.0,16.5,96.9,1004.3,306.7,0.8,1.7,338.1,0.00,16.0,18.5,"22:27:40",1
"18/05/31","22:40",0.0,16.3,96.7,1004.1,289.9,0.7,1.7,338.2,0.00,15.8,18.7,"22:33:00",1
"18/05/31","22:50",0.0,16.1,97.2,1004.1,282.0,0.7,1.2,244.2,0.00,15.7,18.8,"22:49:44",1
"18/05/31","23:00",0.0,16.1,97.1,1004.3,330.6,1.2,2.0,333.3,0.00,15.7,18.6,"22:57:44",1
"18/05/31","23:10",0.0,16.2,97.3,1004.3,331.1,1.5,2.2,336.7,0.00,15.8,18.7,"23:05:36",1
"18/05/31","23:20",0.0,16.2,97.3,1004.1,331.8,1.0,1.6,343.8,0.00,15.8,18.6,"23:17:44",1
"18/05/31","23:30",0.0,16.2,97.3,1003.8,352.7,1.0,1.6,347.1,0.00,15.8,18.5,"23:26:00",1
"18/05/31","23:40",0.0,16.0,97.1,1004.3,310.1,0.5,1.1,329.2,0.00,15.6,18.4,"23:34:32",1
"18/05/31","23:50",0.0,15.9,97.6,1004.5,292.8,0.6,1.2,300.7,0.00,15.6,18.4,"23:47:20",1
"18/05/31","24:00",0.0,16.1,97.7,1004.3,282.3,1.1,2.2,348.2,0.00,15.8,18.4,"23:59:52",1
